Weather History for KSUS - April, 2013

Change the Weather History Date:

Wednesday, April 3, 2013

  Actual Average Record
Temperature  
Mean Temperature 40 °F -  
Max Temperature 53 °F 62 °F 90 °F (2011)
Min Temperature 28 °F 39 °F 28 °F (2002)
Degree Days  
Heating Degree Days 25    
Moisture  
Dew Point 22 °F    
Average Humidity 50    
Maximum Humidity 82    
Minimum Humidity 27    
Precipitation  
Precipitation 0.00 in - - ()
Sea Level Pressure  
Sea Level Pressure 30.33 in    
Wind  
Wind Speed 4 mph (ENE)    
Max Wind Speed 13 mph    
Max Gust Speed 20 mph    
Visibility 10 miles    
Events      
Averages and records for this station are not official NWS values.
T = Trace of Precipitation, MM = Missing Value Source: NWS Daily Summary

Daily Weather History Graph

Daily Weather History Graph

Search for Another Location

Airport or City:

Trip Planner

Search our weather history database for the weather conditions in past years. The results will help you decide how hot, cold, wet, or windy it might be!

Date:

Astronomy

Apr. 03, 2013 Rise Set
Actual Time 6:43 AM CDT 7:28 PM CDT
Civil Twilight 6:17 AM CDT 7:55 PM CDT
Nautical Twilight 5:45 AM CDT 8:26 PM CDT
Astronomical Twilight 5:12 AM CDT 8:59 PM CDT
Moon 2:20 AM CDT (4/3) 12:44 PM CDT (4/3)
Length of Visible Light 13h 38m
Length of Day
12h 44m
Last Quarter, 44% of the Moon is Illuminated
Apr 3
Last Quarter
Apr 10
New
Apr 18
First Quarter
Apr 25
Full
May 2
Last Quarter

Hourly Weather History & Observations

Time (CDT) Temp. Windchill Dew Point Humidity Pressure Visibility Wind Dir Wind Speed Gust Speed Precip Events Conditions
1:54 AM 28.9 °F - 24.1 °F 82% 30.33 in 10.0 mi Calm Calm - N/A   Clear
2:54 AM 28.9 °F - 23.0 °F 78% 30.33 in 10.0 mi Calm Calm - N/A   Clear
3:54 AM 30.0 °F - 24.1 °F 79% 30.35 in 10.0 mi Calm Calm - N/A   Clear
4:54 AM 33.1 °F 28.7 °F 19.9 °F 59% 30.34 in 10.0 mi NE 4.6 mph - N/A   Clear
5:54 AM 30.9 °F - 19.9 °F 64% 30.35 in 10.0 mi Calm Calm - N/A   Clear
6:54 AM 28.0 °F - 19.9 °F 72% 30.39 in 10.0 mi Calm Calm - N/A   Partly Cloudy
7:54 AM 35.1 °F 31.0 °F 21.9 °F 59% 30.42 in 10.0 mi NE 4.6 mph - N/A   Clear
8:54 AM 37.9 °F 32.7 °F 23.0 °F 55% 30.42 in 10.0 mi ENE 6.9 mph - N/A   Clear
9:54 AM 42.1 °F 37.7 °F 21.9 °F 45% 30.41 in 10.0 mi NE 6.9 mph - N/A   Partly Cloudy
10:54 AM 45.0 °F 39.7 °F 21.9 °F 40% 30.41 in 10.0 mi NE 10.4 mph - N/A   Clear
11:54 AM 48.9 °F - 19.0 °F 31% 30.39 in 10.0 mi NE 5.8 mph 18.4 mph N/A   Partly Cloudy
12:54 PM 50.0 °F - 19.0 °F 29% 30.33 in 10.0 mi ENE 10.4 mph - N/A   Partly Cloudy
1:54 PM 51.1 °F - 19.0 °F 28% 30.34 in 10.0 mi East 12.7 mph - N/A   Partly Cloudy
2:54 PM 52.0 °F - 19.9 °F 28% 30.32 in 10.0 mi NE 11.5 mph 19.6 mph N/A   Clear
3:54 PM 52.0 °F - 19.0 °F 27% 30.31 in 10.0 mi East 12.7 mph - N/A   Mostly Cloudy
4:54 PM 52.0 °F - 21.0 °F 30% 30.30 in 10.0 mi East 10.4 mph - N/A   Mostly Cloudy
5:54 PM 50.0 °F - 23.0 °F 35% 30.28 in 10.0 mi East 10.4 mph - N/A   Overcast
6:54 PM 48.0 °F - 21.9 °F 36% 30.29 in 10.0 mi East 8.1 mph - N/A   Overcast
7:54 PM 45.0 °F 41.8 °F 24.1 °F 44% 30.28 in 10.0 mi East 5.8 mph - N/A   Overcast
8:54 PM 45.0 °F 43.5 °F 25.0 °F 46% 30.27 in 10.0 mi East 3.5 mph - N/A   Overcast
9:54 PM 44.1 °F - 27.0 °F 51% 30.28 in 10.0 mi Calm Calm - N/A   Mostly Cloudy
10:54 PM 39.9 °F - 30.0 °F 68% 30.28 in 10.0 mi Calm Calm - N/A   Clear
11:54 PM 37.9 °F - 28.9 °F 70% 30.27 in 10.0 mi Calm Calm - N/A   Clear